Find Starlink 35493

NORAD ID: 65928 Int'l Des: 2025-225 Owner: SPXS Country: US Constellation: starlink operational
LEOCIRCULAR

リアルタイム位置

3D地球を読み込み中...

Starlink 35493について

説明を読み込み中...

次回通過

Passes for default location (London). Set your location on the main map for personalized predictions.

高度履歴

Loading altitude history...

軌道要素

1 65928U 25225U 26106.94703159 .00016931 00000-0 58235-3 0 9995
2 65928 53.1607 348.1050 0001391 92.2857 267.8303 15.30207069 30265
Epoch: Apr 16, 2026 • Age: 11 hours

現在のステータス

高度 494.2 km
速度 7.62 km/s
衛星直下点 -52.25°S, 104.28°W
打ち上げ日 Oct 8, 2025
運用期間 0.5 years
タイプ internet

技術仕様

分類 Payload
質量 575.00 kg
乾燥質量 530.00 kg
総質量 575.00 kg
長さ 0.30 m
直径 4.10 m
スパン 29.00 m
形状 Box + pan
製造者 SPXS
バスタイプ Starlink V2MO
フェーズステータス In Orbit
所有者/国 SPXS/US

Most Searched